Total_Precipitation_Accumulation
0.08 0.08 0.06 0.07 0.05 0.05 0.05 0.06 0.05 0.04 0.04 0.04 0.04 0.03 0.03 0.06 0.05 0.04 0.05 0.05 0.03 0.03 0.03 0.01 0.03 0.03 0.01 0.01 0.01 0.00 0.00 0.01 0.00 0.00 0.00 0.00 0.00 0.00 0.00 0.00 0.00 0.00 0.00 0.00 0.00 0.00 0.00 0.00 0.00 0.00 0.00 0.00 0.00 0.00 0.00 0.00 0.00 0.00 0.00 0.00 0.00 0.00 0.00 0.00 0.00 0.00 0.00 0.00 0.00 0.00 0.00 0.00 0.00 0.00 0.00 0.00 0.00 0.00 0.00 0.02 0.03 0.02 0.04 0.18 0.11 0.15 0.07 0.10
0.07 0.06 0.06 0.05 0.06 0.05 0.05 0.06 0.05 0.05 0.04 0.03 0.04 0.04 0.03 0.03 0.05 0.04 0.05 0.04 0.05 0.02 0.02 0.03 0.02 0.01 0.02 0.00 0.01 0.00 0.00 0.00 0.00 0.00 0.00 0.00 0.00 0.00 0.00 0.00 0.00 0.00 0.00 0.00 0.00 0.00 0.00 0.00 0.00 0.00 0.00 0.00 0.00 0.00 0.00 0.00 0.00 0.00 0.00 0.00 0.00 0.00 0.00 0.00 0.00 0.00 0.00 0.00 0.00 0.00 0.00 0.00 0.00 0.00 0.00 0.04 0.01 0.00 0.00 0.02 0.04 0.11 0.10 0.14 0.16 0.13 0.13 0.13
0.07 0.05 0.06 0.05 0.05 0.05 0.05 0.05 0.05 0.04 0.04 0.04 0.04 0.06 0.04 0.03 0.04 0.04 0.04 0.05 0.05 0.04 0.03 0.02 0.02 0.01 0.00 0.01 0.00 0.00 0.00 0.00 0.00 0.00 0.00 0.00 0.00 0.00 0.00 0.00 0.00 0.00 0.00 0.00 0.00 0.00 0.00 0.00 0.00 0.00 0.00 0.00 0.00 0.00 0.00 0.00 0.00 0.00 0.00 0.00 0.00 0.00 0.00 0.00 0.00 0.00 0.00 0.00 0.00 0.00 0.00 0.00 0.00 0.00 0.00 0.00 0.00 0.00 0.01 0.03 0.09 0.09 0.29 0.19 0.23 0.20 0.18 0.26
0.07 0.05 0.05 0.06 0.04 0.05 0.05 0.04 0.04 0.04 0.05 0.05 0.04 0.04 0.04 0.05 0.04 0.04 0.06 0.04 0.03 0.04 0.03 0.03 0.01 0.01 0.01 0.00 0.02 0.00 0.00 0.00 0.00 0.00 0.00 0.00 0.00 0.00 0.00 0.00 0.00 0.00 0.00 0.00 0.00 0.00 0.00 0.00 0.00 0.00 0.00 0.00 0.00 0.00 0.00 0.00 0.00 0.00 0.00 0.00 0.00 0.00 0.00 0.00 0.00 0.00 0.00 0.00 0.00 0.00 0.00 0.00 0.00 0.00 0.00 0.00 0.01 0.02 0.07 0.05 0.03 0.13 0.28 0.27 0.21 0.16 0.22 0.31
0.06 0.05 0.05 0.07 0.05 0.06 0.06 0.05 0.07 0.06 0.05 0.05 0.04 0.04 0.06 0.05 0.05 0.08 0.04 0.04 0.03 0.03 0.03 0.02 0.01 0.01 0.01 0.02 0.00 0.00 0.00 0.00 0.00 0.00 0.00 0.00 0.00 0.00 0.00 0.00 0.00 0.00 0.00 0.00 0.00 0.00 0.00 0.00 0.00 0.00 0.00 0.00 0.00 0.00 0.00 0.00 0.00 0.00 0.00 0.00 0.00 0.00 0.00 0.00 0.00 0.00 0.00 0.00 0.00 0.00 0.00 0.00 0.00 0.00 0.00 0.00 0.00 0.07 0.06 0.03 0.05 0.09 0.35 0.20 0.23 0.11 0.24 0.36
0.05 0.05 0.05 0.05 0.06 0.06 0.06 0.05 0.05 0.06 0.06 0.05 0.06 0.05 0.06 0.06 0.05 0.06 0.05 0.05 0.04 0.02 0.02 0.02 0.01 0.00 0.01 0.01 0.00 0.00 0.00 0.00 0.00 0.00 0.00 0.00 0.00 0.00 0.00 0.00 0.00 0.00 0.00 0.00 0.00 0.00 0.00 0.00 0.00 0.00 0.00 0.00 0.00 0.00 0.00 0.00 0.00 0.00 0.00 0.00 0.00 0.00 0.00 0.00 0.00 0.00 0.00 0.00 0.00 0.00 0.00 0.00 0.00 0.00 0.00 0.00 0.00 0.01 0.01 0.01 0.04 0.05 0.09 0.15 0.17 0.17 0.20 0.25
0.05 0.05 0.06 0.05 0.06 0.06 0.05 0.05 0.06 0.04 0.04 0.06 0.06 0.06 0.06 0.06 0.07 0.05 0.06 0.05 0.04 0.04 0.02 0.02 0.01 0.01 0.01 0.01 0.00 0.01 0.01 0.00 0.00 0.00 0.00 0.00 0.00 0.00 0.00 0.00 0.00 0.00 0.00 0.00 0.00 0.00 0.00 0.00 0.00 0.00 0.00 0.00 0.00 0.00 0.00 0.00 0.00 0.00 0.00 0.00 0.00 0.00 0.00 0.00 0.00 0.00 0.00 0.00 0.00 0.00 0.00 0.00 0.00 0.00 0.00 0.00 0.00 0.00 0.00 0.01 0.02 0.12 0.10 0.10 0.14 0.17 0.31 0.26
0.06 0.06 0.06 0.06 0.05 0.03 0.05 0.05 0.06 0.06 0.05 0.07 0.06 0.05 0.07 0.07 0.08 0.06 0.04 0.04 0.04 0.03 0.03 0.02 0.00 0.01 0.02 0.01 0.01 0.01 0.02 0.00 0.00 0.00 0.00 0.00 0.00 0.00 0.00 0.00 0.00 0.00 0.00 0.00 0.00 0.00 0.00 0.00 0.00 0.00 0.00 0.00 0.00 0.00 0.00 0.00 0.00 0.00 0.00 0.00 0.00 0.00 0.00 0.00 0.00 0.00 0.00 0.00 0.00 0.00 0.00 0.00 0.00 0.00 0.00 0.00 0.01 0.00 0.00 0.01 0.03 0.06 0.12 0.20 0.12 0.26 0.47 0.49
0.05 0.05 0.05 0.05 0.06 0.06 0.05 0.06 0.06 0.06 0.08 0.08 0.08 0.07 0.07 0.07 0.07 0.05 0.03 0.04 0.03 0.05 0.03 0.03 0.00 0.01 0.02 0.03 0.04 0.06 0.01 0.00 0.00 0.00 0.00 0.00 0.00 0.00 0.00 0.00 0.00 0.00 0.00 0.00 0.00 0.00 0.00 0.00 0.00 0.00 0.00 0.00 0.00 0.00 0.00 0.00 0.00 0.00 0.00 0.00 0.00 0.00 0.00 0.00 0.00 0.00 0.00 0.00 0.00 0.00 0.00 0.00 0.00 0.00 0.00 0.01 0.01 0.02 0.01 0.01 0.06 0.07 0.11 0.15 0.15 0.16 0.31 0.66
0.06 0.05 0.04 0.05 0.05 0.05 0.07 0.06 0.08 0.06 0.07 0.09 0.07 0.08 0.06 0.05 0.04 0.05 0.04 0.04 0.03 0.03 0.03 0.02 0.01 0.03 0.04 0.07 0.04 0.05 0.00 0.00 0.00 0.00 0.00 0.00 0.00 0.00 0.00 0.00 0.00 0.00 0.00 0.00 0.00 0.00 0.00 0.00 0.00 0.00 0.00 0.00 0.00 0.00 0.00 0.00 0.00 0.00 0.00 0.00 0.00 0.00 0.00 0.00 0.00 0.00 0.00 0.00 0.00 0.00 0.00 0.00 0.00 0.00 0.00 0.04 0.03 0.07 0.06 0.03 0.04 0.05 0.06 0.19 0.16 0.25 0.19 0.37
0.06 0.05 0.06 0.05 0.05 0.06 0.06 0.06 0.05 0.04 0.05 0.05 0.06 0.06 0.07 0.05 0.04 0.04 0.04 0.02 0.04 0.02 0.03 0.01 0.03 0.01 0.06 0.10 0.05 0.01 0.00 0.00 0.00 0.00 0.00 0.00 0.00 0.00 0.00 0.00 0.00 0.00 0.00 0.00 0.00 0.00 0.00 0.00 0.00 0.00 0.00 0.00 0.00 0.00 0.00 0.00 0.00 0.00 0.00 0.00 0.00 0.00 0.00 0.00 0.00 0.00 0.00 0.00 0.00 0.00 0.00 0.00 0.00 0.00 0.00 0.01 0.05 0.12 0.08 0.05 0.07 0.08 0.18 0.25 0.16 0.27 0.40 0.43
0.05 0.07 0.04 0.03 0.05 0.05 0.04 0.05 0.05 0.06 0.04 0.07 0.05 0.04 0.04 0.03 0.04 0.04 0.04 0.04 0.03 0.03 0.02 0.02 0.06 0.11 0.05 0.13 0.09 0.00 0.00 0.00 0.00 0.00 0.00 0.00 0.00 0.00 0.00 0.00 0.00 0.00 0.00 0.00 0.00 0.00 0.00 0.00 0.00 0.00 0.00 0.00 0.00 0.00 0.00 0.00 0.00 0.00 0.00 0.00 0.00 0.00 0.00 0.00 0.00 0.00 0.00 0.00 0.00 0.00 0.00 0.00 0.00 0.00 0.00 0.00 0.01 0.17 0.11 0.03 0.05 0.14 0.16 0.35 0.18 0.18 0.27 0.33
0.04 0.05 0.05 0.05 0.05 0.07 0.04 0.04 0.05 0.05 0.05 0.04 0.04 0.04 0.04 0.04 0.04 0.05 0.04 0.04 0.03 0.02 0.02 0.03 0.03 0.09 0.28 0.21 0.01 0.00 0.00 0.00 0.00 0.00 0.00 0.00 0.00 0.00 0.00 0.00 0.00 0.00 0.00 0.00 0.00 0.00 0.00 0.00 0.00 0.00 0.00 0.00 0.00 0.00 0.00 0.00 0.00 0.00 0.00 0.00 0.00 0.00 0.00 0.00 0.00 0.00 0.00 0.00 0.00 0.00 0.00 0.00 0.00 0.00 0.01 0.00 0.02 0.08 0.19 0.12 0.07 0.08 0.15 0.19 0.22 0.13 0.26 0.37
0.05 0.04 0.07 0.07 0.03 0.04 0.05 0.05 0.03 0.05 0.04 0.04 0.03 0.05 0.04 0.03 0.07 0.03 0.06 0.04 0.06 0.06 0.04 0.03 0.10 0.09 0.19 0.07 0.00 0.00 0.00 0.00 0.00 0.00 0.00 0.00 0.00 0.00 0.00 0.00 0.00 0.00 0.00 0.00 0.00 0.00 0.00 0.00 0.00 0.00 0.00 0.00 0.00 0.00 0.00 0.00 0.00 0.00 0.00 0.00 0.00 0.00 0.00 0.00 0.00 0.00 0.00 0.00 0.00 0.00 0.00 0.00 0.00 0.00 0.01 0.01 0.01 0.01 0.02 0.07 0.07 0.13 0.12 0.17 0.19 0.17 0.29 0.52
0.06 0.09 0.06 0.06 0.06 0.05 0.06 0.06 0.09 0.08 0.06 0.05 0.04 0.03 0.02 0.02 0.02 0.03 0.05 0.04 0.08 0.03 0.06 0.07 0.06 0.18 0.24 0.01 0.00 0.00 0.00 0.00 0.00 0.00 0.00 0.00 0.00 0.00 0.00 0.00 0.00 0.00 0.00 0.00 0.00 0.00 0.00 0.00 0.00 0.00 0.00 0.00 0.00 0.00 0.00 0.00 0.00 0.00 0.00 0.00 0.00 0.00 0.00 0.00 0.00 0.00 0.00 0.00 0.00 0.00 0.00 0.00 0.00 0.01 0.02 0.01 0.05 0.02 0.02 0.05 0.09 0.22 0.13 0.18 0.21 0.91 0.43 0.35
0.09 0.07 0.11 0.05 0.06 0.06 0.04 0.08 0.04 0.04 0.05 0.09 0.04 0.02 0.03 0.02 0.03 0.02 0.03 0.03 0.02 0.07 0.09 0.11 0.06 0.08 0.08 0.04 0.00 0.00 0.00 0.00 0.00 0.00 0.00 0.00 0.00 0.00 0.00 0.00 0.00 0.00 0.00 0.00 0.00 0.00 0.00 0.00 0.00 0.00 0.00 0.00 0.00 0.00 0.00 0.00 0.00 0.00 0.00 0.00 0.00 0.00 0.00 0.00 0.00 0.00 0.00 0.00 0.00 0.00 0.00 0.00 0.00 0.04 0.09 0.07 0.04 0.02 0.02 0.05 0.05 0.11 0.32 0.44 0.50 1.02 0.60 0.56
0.09 0.05 0.05 0.05 0.05 0.06 0.07 0.06 0.05 0.04 0.07 0.04 0.09 0.01 0.01 0.00 0.01 0.00 0.02 0.03 0.03 0.03 0.10 0.04 0.02 0.07 0.14 0.00 0.00 0.00 0.00 0.00 0.00 0.00 0.00 0.00 0.00 0.00 0.00 0.00 0.00 0.00 0.00 0.00 0.00 0.00 0.00 0.00 0.00 0.00 0.00 0.00 0.00 0.00 0.00 0.00 0.00 0.00 0.00 0.00 0.00 0.00 0.00 0.00 0.00 0.00 0.00 0.00 0.00 0.00 0.00 0.00 0.00 0.01 0.08 0.37 0.17 0.02 0.04 0.12 0.08 0.11 0.39 0.59 1.66 0.96 0.90 1.17
0.08 0.05 0.05 0.06 0.06 0.04 0.04 0.11 0.07 0.05 0.06 0.05 0.05 0.01 0.01 0.00 0.01 0.01 0.01 0.01 0.02 0.01 0.06 0.03 0.06 0.31 0.06 0.00 0.00 0.00 0.00 0.00 0.00 0.00 0.00 0.00 0.00 0.00 0.00 0.00 0.00 0.00 0.00 0.00 0.00 0.00 0.00 0.00 0.00 0.00 0.00 0.00 0.00 0.00 0.00 0.00 0.00 0.00 0.00 0.00 0.00 0.00 0.00 0.00 0.00 0.00 0.00 0.00 0.00 0.00 0.00 0.00 0.00 0.00 0.01 0.01 0.02 0.01 0.02 0.10 0.14 0.22 0.67 1.39 1.24 0.99 1.48 1.13
0.08 0.05 0.06 0.05 0.03 0.05 0.08 0.08 0.05 0.07 0.08 0.04 0.02 0.01 0.00 0.01 0.03 0.02 0.01 0.08 0.08 0.20 0.10 0.06 0.15 0.03 0.02 0.00 0.00 0.00 0.00 0.00 0.00 0.00 0.00 0.00 0.00 0.00 0.00 0.00 0.00 0.00 0.00 0.00 0.00 0.00 0.00 0.00 0.00 0.00 0.00 0.00 0.00 0.00 0.00 0.00 0.00 0.00 0.00 0.00 0.00 0.00 0.00 0.00 0.00 0.00 0.00 0.00 0.00 0.00 0.00 0.00 0.00 0.00 0.00 0.01 0.01 0.01 0.03 0.21 0.67 0.70 0.48 0.65 0.99 1.38 0.96 0.64
0.09 0.06 0.04 0.04 0.04 0.03 0.04 0.04 0.04 0.07 0.14 0.06 0.03 0.02 0.04 0.07 0.19 0.11 0.02 0.04 0.03 0.01 0.00 0.00 0.00 0.00 0.00 0.00 0.00 0.00 0.00 0.00 0.00 0.00 0.00 0.00 0.00 0.00 0.00 0.00 0.00 0.00 0.00 0.00 0.00 0.00 0.00 0.00 0.00 0.00 0.00 0.00 0.00 0.00 0.00 0.00 0.00 0.00 0.00 0.00 0.00 0.00 0.00 0.00 0.00 0.00 0.00 0.00 0.00 0.00 0.00 0.00 0.00 0.00 0.00 0.01 0.05 0.07 0.12 0.40 0.22 0.25 0.50 1.37 1.74 0.75 0.98 1.12
0.08 0.06 0.07 0.06 0.04 0.03 0.04 0.07 0.06 0.04 0.15 0.11 0.07 0.04 0.03 0.03 0.07 0.12 0.27 0.06 0.03 0.01 0.00 0.00 0.00 0.00 0.00 0.00 0.00 0.00 0.00 0.00 0.00 0.00 0.00 0.00 0.00 0.00 0.00 0.00 0.00 0.00 0.00 0.00 0.00 0.00 0.00 0.00 0.00 0.00 0.00 0.00 0.00 0.00 0.00 0.00 0.00 0.00 0.00 0.00 0.00 0.00 0.00 0.00 0.00 0.00 0.00 0.00 0.00 0.00 0.00 0.00 0.00 0.00 0.00 0.01 0.04 0.07 0.05 0.14 0.14 0.39 0.62 1.29 0.75 0.70 0.52 0.58
0.10 0.08 0.06 0.08 0.03 0.05 0.06 0.10 0.06 0.17 0.05 0.08 0.10 0.05 0.02 0.05 0.06 0.07 0.21 0.15 0.02 0.01 0.00 0.00 0.00 0.00 0.00 0.00 0.00 0.00 0.00 0.00 0.00 0.00 0.00 0.00 0.00 0.00 0.00 0.00 0.00 0.00 0.00 0.00 0.00 0.00 0.00 0.00 0.00 0.00 0.00 0.00 0.00 0.00 0.00 0.00 0.00 0.00 0.00 0.00 0.00 0.00 0.00 0.00 0.00 0.00 0.00 0.00 0.00 0.00 0.00 0.00 0.00 0.00 0.00 0.02 0.02 0.04 0.03 0.08 0.29 0.61 1.32 0.85 0.46 0.34 0.56 0.51
0.11 0.07 0.06 0.05 0.06 0.03 0.05 0.04 0.04 0.07 0.12 0.11 0.10 0.04 0.07 0.03 0.05 0.15 0.26 0.17 0.11 0.01 0.02 0.01 0.01 0.00 0.00 0.00 0.00 0.00 0.00 0.00 0.00 0.00 0.00 0.00 0.00 0.00 0.00 0.00 0.00 0.00 0.00 0.00 0.00 0.00 0.00 0.00 0.01 0.00 0.00 0.00 0.00 0.00 0.00 0.00 0.00 0.00 0.00 0.00 0.00 0.00 0.00 0.03 0.00 0.00 0.00 0.00 0.00 0.00 0.01 0.01 0.00 0.00 0.00 0.02 0.02 0.03 0.03 0.11 0.42 1.01 0.22 0.48 0.91 0.90 0.46 0.17
0.12 0.12 0.09 0.07 0.08 0.05 0.07 0.09 0.07 0.04 0.03 0.06 0.05 0.09 0.06 0.06 0.14 0.11 0.18 0.24 0.02 0.00 0.00 0.00 0.00 0.00 0.00 0.00 0.00 0.00 0.00 0.00 0.00 0.00 0.00 0.00 0.00 0.00 0.00 0.00 0.00 0.00 0.00 0.00 0.00 0.00 0.00 0.00 0.01 0.01 0.00 0.00 0.00 0.00 0.00 0.00 0.00 0.00 0.00 0.00 0.00 0.00 0.00 0.00 0.07 0.00 0.00 0.00 0.00 0.00 0.00 0.01 0.00 0.00 0.00 0.00 0.02 0.07 0.19 0.43 0.81 0.62 0.82 0.83 0.56 0.43 0.49 0.62
0.05 0.07 0.06 0.06 0.10 0.24 0.11 0.13 0.03 0.07 0.05 0.03 0.13 0.11 0.08 0.09 0.50 0.23 0.23 0.18 0.06 0.01 0.00 0.00 0.00 0.00 0.00 0.00 0.00 0.00 0.00 0.00 0.00 0.00 0.00 0.00 0.00 0.00 0.00 0.00 0.00 0.00 0.00 0.00 0.00 0.00 0.00 0.01 0.00 0.00 0.00 0.00 0.00 0.00 0.00 0.00 0.00 0.00 0.00 0.00 0.00 0.00 0.00 0.00 0.00 0.00 0.00 0.01 0.00 0.00 0.02 0.01 0.01 0.00 0.01 0.00 0.01 0.11 0.27 0.20 0.15 0.34 0.73 0.77 0.80 0.71 0.68 0.67
0.11 0.07 0.11 0.09 0.13 0.37 0.08 0.03 0.09 0.07 0.06 0.17 0.15 0.13 0.17 0.30 0.27 0.31 0.16 0.21 0.10 0.01 0.00 0.00 0.00 0.00 0.00 0.00 0.00 0.00 0.00 0.00 0.00 0.00 0.00 0.00 0.00 0.00 0.00 0.00 0.00 0.00 0.00 0.00 0.00 0.00 0.00 0.00 0.00 0.00 0.00 0.00 0.00 0.00 0.00 0.00 0.00 0.00 0.03 0.00 0.00 0.00 0.00 0.00 0.00 0.00 0.00 0.03 0.05 0.00 0.01 0.03 0.01 0.02 0.00 0.00 0.01 0.06 0.25 0.16 0.16 0.10 0.10 0.28 0.15 0.23 0.23 0.23
0.05 0.18 0.12 0.15 0.22 0.33 0.17 0.27 0.13 0.06 0.16 0.22 0.12 0.15 0.16 0.21 0.13 0.18 0.51 0.11 0.09 0.14 0.01 0.01 0.00 0.06 0.00 0.00 0.00 0.00 0.00 0.01 0.00 0.00 0.00 0.00 0.00 0.00 0.00 0.00 0.00 0.00 0.00 0.00 0.00 0.00 0.00 0.00 0.00 0.00 0.00 0.00 0.00 0.00 0.00 0.00 0.00 0.02 0.01 0.00 0.00 0.00 0.00 0.00 0.00 0.00 0.02 0.00 0.00 0.00 0.00 0.03 0.02 0.07 0.00 0.01 0.01 0.06 0.08 0.08 0.16 0.10 0.24 0.19 0.28 0.29 0.57 0.50
0.08 0.15 0.08 0.09 0.33 0.36 0.39 0.13 0.09 0.11 0.25 0.61 0.57 0.21 0.16 0.09 0.32 0.51 0.29 0.19 0.05 0.13 0.17 0.12 0.03 0.09 0.00 0.00 0.00 0.00 0.00 0.00 0.00 0.00 0.00 0.00 0.00 0.00 0.00 0.00 0.00 0.00 0.00 0.00 0.01 0.00 0.00 0.00 0.00 0.00 0.00 0.00 0.00 0.00 0.00 0.00 0.00 0.02 0.00 0.00 0.00 0.00 0.01 0.00 0.00 0.00 0.05 0.01 0.05 0.00 0.00 0.00 0.05 0.05 0.00 0.00 0.03 0.09 0.10 0.14 0.12 0.15 0.28 0.25 0.26 0.29 0.60 0.59
0.12 0.12 0.12 0.11 0.13 0.21 0.29 0.18 0.12 0.12 0.30 0.15 0.22 0.29 0.13 0.34 0.23 0.78 0.76 0.24 0.60 0.15 0.20 0.12 0.01 0.15 0.08 0.02 0.00 0.00 0.00 0.00 0.00 0.00 0.00 0.00 0.00 0.00 0.00 0.00 0.00 0.00 0.00 0.00 0.00 0.00 0.00 0.00 0.00 0.00 0.00 0.00 0.00 0.00 0.00 0.00 0.01 0.00 0.00 0.00 0.00 0.00 0.00 0.00 0.01 0.00 0.08 0.00 0.02 0.05 0.10 0.03 0.05 0.03 0.04 0.06 0.02 0.10 0.16 0.19 0.14 0.28 0.37 0.34 0.27 0.45 0.47 0.48
0.09 0.10 0.20 0.11 0.15 0.15 0.44 0.55 0.25 0.29 0.15 0.24 0.19 0.16 0.21 0.38 1.30 0.44 0.63 0.15 0.30 0.63 0.12 0.26 0.10 0.24 0.05 0.04 0.01 0.00 0.00 0.00 0.00 0.00 0.00 0.00 0.00 0.00 0.00 0.00 0.01 0.00 0.00 0.00 0.00 0.00 0.00 0.00 0.00 0.00 0.00 0.00 0.00 0.00 0.00 0.00 0.00 0.00 0.00 0.00 0.00 0.00 0.01 0.00 0.00 0.06 0.04 0.00 0.02 0.02 0.02 0.00 0.09 0.14 0.17 0.11 0.06 0.05 0.12 0.23 0.33 0.32 0.41 0.61 0.26 0.25 0.41 0.48
0.17 0.14 0.14 0.25 0.28 0.24 0.16 0.16 0.21 0.32 0.29 0.27 0.15 0.18 0.29 0.86 0.83 0.52 0.22 0.24 0.52 0.56 0.22 0.28 0.23 0.08 0.13 0.12 0.05 0.01 0.00 0.00 0.00 0.00 0.00 0.00 0.00 0.00 0.00 0.00 0.00 0.01 0.00 0.00 0.00 0.00 0.00 0.00 0.00 0.00 0.00 0.00 0.00 0.00 0.00 0.00 0.00 0.00 0.00 0.02 0.00 0.02 0.00 0.00 0.04 0.03 0.08 0.00 0.03 0.02 0.01 0.02 0.07 0.19 0.17 0.11 0.09 0.11 0.08 0.14 0.21 0.42 0.24 0.25 0.30 0.26 0.27 0.47
0.10 0.22 0.20 0.32 0.23 0.20 0.20 0.45 0.41 0.24 0.22 0.28 0.20 0.19 0.49 0.71 0.57 0.63 0.19 0.14 0.50 0.92 0.68 0.37 0.32 0.17 0.12 0.07 0.09 0.01 0.00 0.00 0.00 0.00 0.00 0.00 0.02 0.00 0.00 0.00 0.00 0.00 0.01 0.01 0.04 0.00 0.00 0.00 0.00 0.00 0.00 0.00 0.00 0.00 0.00 0.00 0.00 0.00 0.00 0.01 0.19 0.16 0.03 0.04 0.05 0.02 0.01 0.04 0.04 0.00 0.00 0.07 0.01 0.31 0.15 0.16 0.14 0.34 0.13 0.12 0.15 0.16 0.15 0.18 0.29 0.21 0.30 0.50
0.07 0.13 0.20 0.13 0.27 0.15 0.06 0.19 0.08 0.25 0.19 0.53 0.18 0.54 0.78 0.91 0.52 0.20 0.20 0.26 1.14 1.17 0.59 0.32 0.37 0.28 0.24 0.11 0.02 0.00 0.00 0.03 0.01 0.00 0.00 0.00 0.00 0.00 0.00 0.00 0.00 0.00 0.02 0.05 0.02 0.00 0.00 0.00 0.00 0.00 0.00 0.00 0.00 0.00 0.02 0.00 0.00 0.00 0.01 0.13 0.04 0.11 0.06 0.02 0.07 0.01 0.05 0.03 0.01 0.04 0.01 0.04 0.24 0.23 0.23 0.48 0.27 0.25 0.12 0.10 0.13 0.13 0.21 0.21 0.32 0.33 0.48 0.46
0.07 0.09 0.19 0.25 0.18 0.10 0.25 0.10 0.12 0.11 0.22 0.36 0.41 0.65 1.64 0.59 0.34 0.62 0.42 0.51 0.88 0.61 0.53 0.31 0.34 0.17 0.03 0.19 0.03 0.01 0.03 0.01 0.00 0.00 0.00 0.02 0.00 0.01 0.01 0.00 0.00 0.01 0.00 0.03 0.01 0.02 0.04 0.07 0.00 0.00 0.00 0.00 0.00 0.00 0.00 0.03 0.01 0.01 0.00 0.01 0.09 0.13 0.07 0.02 0.06 0.05 0.02 0.18 0.09 0.02 0.01 0.08 0.07 1.01 0.27 0.37 0.36 0.35 0.33 0.35 0.43 0.43 0.19 0.20 0.26 0.35 0.44 1.23
0.10 0.13 0.08 0.09 0.11 0.09 0.18 0.19 0.07 0.11 0.29 0.29 0.49 0.74 0.68 0.34 0.35 0.40 0.71 0.47 0.51 0.61 0.65 0.26 0.24 0.17 0.15 0.04 0.07 0.01 0.02 0.10 0.00 0.02 0.00 0.00 0.02 0.00 0.01 0.00 0.00 0.00 0.01 0.00 0.06 0.01 0.00 0.03 0.06 0.00 0.00 0.00 0.00 0.00 0.00 0.00 0.00 0.01 0.00 0.00 0.05 0.05 0.00 0.09 0.30 0.06 0.16 0.08 0.04 0.05 0.08 0.48 0.68 0.80 0.51 0.21 0.20 1.13 1.51 1.24 1.27 0.82 0.82 0.34 0.34 0.42 1.10 1.02
0.05 0.45 0.22 0.24 0.10 0.15 0.16 0.05 0.07 0.24 0.26 0.55 0.66 0.73 0.59 0.52 0.59 0.61 1.02 0.39 0.58 0.79 0.62 0.39 0.20 0.34 0.19 0.25 0.04 0.06 0.01 0.11 0.05 0.05 0.03 0.00 0.00 0.01 0.00 0.00 0.00 0.00 0.04 0.00 0.12 0.04 0.01 0.12 0.00 0.01 0.00 0.00 0.00 0.00 0.00 0.00 0.22 0.32 0.00 0.01 0.03 0.02 0.01 0.02 0.00 0.01 0.00 0.00 0.03 0.01 0.13 0.25 0.20 0.77 0.43 0.77 0.43 0.48 1.05 1.53 1.68 1.89 1.91 1.62 1.65 1.74 1.63 0.96
0.38 0.12 0.26 0.27 0.08 0.06 0.03 0.05 0.07 0.52 0.17 0.43 0.75 0.61 0.25 0.46 0.32 0.34 0.58 0.42 0.55 0.70 1.06 0.97 0.61 0.51 0.45 0.22 0.17 0.03 0.21 0.02 0.15 0.03 0.24 0.01 0.06 0.00 0.01 0.00 0.00 0.00 0.00 0.00 0.11 0.01 0.10 0.22 0.01 0.00 0.00 0.00 0.00 0.00 0.00 0.00 0.00 0.06 0.03 0.03 0.00 0.00 0.02 0.02 0.16 0.08 0.01 0.04 0.06 0.02 0.05 0.30 0.06 0.63 0.50 0.46 0.74 1.13 0.88 0.79 1.96 1.70 1.72 1.90 1.99 1.31 1.29 1.66
0.22 0.11 0.15 0.20 0.12 0.05 0.04 0.03 0.06 0.25 0.22 0.47 0.64 0.43 0.28 0.44 0.21 0.17 0.34 0.44 0.45 0.55 0.93 0.91 1.14 0.57 0.48 0.22 0.14 0.12 0.32 0.09 0.35 0.06 0.13 0.01 0.20 0.00 0.01 0.02 0.00 0.00 0.00 0.00 0.01 0.05 0.01 0.09 0.04 0.00 0.00 0.00 0.00 0.00 0.00 0.00 0.00 0.00 0.07 0.01 0.01 0.09 0.07 0.04 0.00 0.02 0.03 0.02 0.09 0.02 0.10 0.10 0.13 0.52 0.27 0.50 0.44 0.62 0.53 0.63 0.45 0.98 1.49 2.13 2.30 2.39 2.08 1.38
0.39 0.35 0.36 0.22 0.15 0.05 0.04 0.06 0.06 0.22 0.47 0.51 0.48 0.76 0.39 0.44 0.20 0.30 0.38 0.49 0.54 0.61 0.65 0.75 1.13 0.61 0.68 0.33 0.16 0.06 0.22 0.15 0.09 0.22 0.22 0.20 0.20 0.14 0.10 0.01 0.07 0.00 0.00 0.02 0.00 0.01 0.00 0.02 0.05 0.00 0.00 0.01 0.00 0.00 0.00 0.01 0.00 0.00 0.00 0.00 0.00 0.00 0.04 0.06 0.03 0.10 0.01 0.25 0.02 0.15 0.07 0.13 0.19 0.34 0.14 0.30 0.62 0.81 0.35 0.31 0.40 0.52 0.83 0.96 1.26 1.26 1.06 0.66
0.32 0.71 0.44 0.21 0.11 0.04 0.02 0.03 0.13 0.26 0.43 0.47 0.31 0.43 0.31 0.47 0.29 0.23 0.37 0.49 0.59 0.41 0.49 0.58 0.52 0.67 0.35 0.28 0.20 0.24 0.06 0.11 0.15 0.33 0.06 0.54 0.06 0.02 0.10 0.00 0.03 0.00 0.00 0.00 0.00 0.00 0.04 0.02 0.10 0.05 0.00 0.00 0.06 0.01 0.01 0.01 0.06 0.01 0.00 0.00 0.01 0.01 0.05 0.01 0.14 0.02 0.12 0.16 0.07 0.12 0.17 0.46 0.56 0.14 0.19 0.18 0.34 0.82 0.84 0.47 0.54 0.50 0.44 0.71 0.88 1.30 0.94 0.78
0.22 0.63 0.46 0.56 0.29 0.03 0.03 0.14 0.25 0.35 0.33 0.26 0.36 0.40 0.38 0.62 0.41 0.36 0.31 0.34 0.55 0.28 0.42 0.55 0.42 0.60 0.48 0.36 0.15 0.19 0.19 0.23 0.12 0.22 0.06 0.15 0.08 0.18 0.00 0.03 0.01 0.06 0.00 0.03 0.00 0.03 0.01 0.00 0.01 0.05 0.01 0.01 0.05 0.01 0.00 0.00 0.00 0.01 0.01 0.06 0.02 0.10 0.09 0.07 0.09 0.01 0.05 0.06 0.12 0.03 0.16 0.47 0.44 0.09 0.28 0.26 0.27 0.21 0.50 0.74 0.60 1.05 0.88 1.57 1.35 1.25 1.53 2.64
0.85 0.57 1.04 0.61 0.20 0.19 0.15 0.45 0.20 0.17 0.34 0.25 0.36 0.41 0.57 0.49 0.65 0.44 0.34 0.25 0.32 0.41 0.35 0.47 0.25 0.59 0.36 0.20 0.26 0.19 0.10 0.07 0.08 0.12 0.12 0.30 0.40 0.17 0.21 0.00 0.01 0.01 0.05 0.03 0.01 0.04 0.04 0.01 0.06 0.02 0.07 0.12 0.02 0.01 0.00 0.00 0.00 0.00 0.00 0.01 0.00 0.05 0.03 0.08 0.11 0.19 0.05 0.04 0.04 0.24 0.09 0.61 0.32 0.21 0.35 0.32 0.21 0.29 0.23 0.25 0.70 0.73 0.70 0.66 0.63 1.31 1.34 2.05
0.43 0.55 1.29 0.89 0.29 0.22 0.31 0.29 0.12 0.23 0.27 0.28 0.22 0.35 0.44 0.60 0.60 0.59 0.47 0.29 0.47 0.46 0.49 0.48 0.25 0.32 0.41 0.30 0.47 0.29 0.03 0.06 0.04 0.18 0.10 0.06 0.27 0.10 0.08 0.03 0.01 0.02 0.00 0.13 0.00 0.01 0.00 0.00 0.01 0.04 0.05 0.03 0.01 0.00 0.00 0.00 0.00 0.01 0.00 0.00 0.00 0.08 0.03 0.04 0.13 0.25 0.06 0.11 0.10 0.09 0.09 0.68 0.46 0.35 0.61 0.34 0.20 0.17 0.30 0.62 0.60 0.86 0.84 0.55 0.68 0.79 0.91 1.05
0.67 2.15 1.08 0.91 0.44 0.45 0.37 0.33 0.27 0.15 0.11 0.12 0.18 0.22 0.23 0.55 0.64 0.58 0.50 0.49 0.58 0.45 0.51 0.33 0.13 0.34 0.35 0.37 0.30 0.37 0.08 0.05 0.02 0.19 0.13 0.06 0.37 0.04 0.02 0.03 0.02 0.05 0.06 0.29 0.09 0.03 0.15 0.03 0.01 0.10 0.08 0.17 0.17 0.04 0.00 0.00 0.00 0.00 0.01 0.02 0.00 0.00 0.02 0.08 0.04 0.12 0.02 0.10 0.24 0.17 0.12 0.53 0.86 0.58 0.99 0.80 0.42 0.49 0.52 0.43 0.53 0.23 0.30 0.36 0.39 0.34 0.78 0.77
1.06 1.46 1.36 0.99 0.55 0.49 0.68 0.49 0.35 0.17 0.28 0.20 0.22 0.24 0.41 0.46 0.52 0.50 0.57 0.61 0.61 0.56 0.40 0.23 0.13 0.43 0.85 0.33 0.33 0.14 0.05 0.32 0.14 0.11 0.14 0.11 0.52 0.00 0.01 0.00 0.02 0.17 0.08 0.04 0.00 0.07 0.08 0.19 0.01 0.08 0.23 0.13 0.16 0.23 0.27 0.12 0.06 0.03 0.00 0.00 0.01 0.01 0.19 0.11 0.06 0.08 0.02 0.07 0.03 0.12 0.60 0.43 0.51 0.54 0.54 0.34 0.29 0.29 0.39 0.22 0.15 0.60 1.44 0.75 0.62 0.49 0.39 0.79
1.25 1.64 1.11 1.09 1.29 1.13 0.18 0.35 0.31 0.58 0.31 0.27 0.24 0.27 0.32 0.58 0.43 0.45 0.45 0.61 0.48 0.64 0.45 0.24 0.10 0.09 0.13 0.22 0.26 0.22 0.13 0.03 0.11 0.14 0.15 0.18 0.14 0.04 0.00 0.01 0.15 0.06 0.08 0.03 0.05 0.02 0.26 0.08 0.10 0.07 0.25 0.37 0.49 0.38 0.12 0.05 0.26 0.05 0.05 0.01 0.06 0.00 0.02 0.05 0.09 0.06 0.18 0.16 0.09 0.20 0.22 0.35 0.58 0.63 0.28 0.46 0.50 0.55 0.69 0.31 0.21 0.28 0.44 0.40 0.94 1.44 1.42 0.96
1.03 1.47 1.06 0.89 0.47 0.51 0.67 0.30 0.34 0.25 0.42 0.49 0.57 0.34 0.43 0.41 0.46 0.49 0.40 0.73 0.46 0.57 0.30 0.60 0.34 0.24 0.14 0.12 0.13 0.28 0.04 0.04 0.04 0.07 0.10 0.44 0.30 0.16 0.01 0.05 0.16 0.04 0.01 0.03 0.04 0.23 0.28 0.23 0.09 0.15 0.19 0.10 0.09 0.13 0.21 0.09 0.08 0.05 0.05 0.05 0.02 0.03 0.02 0.10 0.04 0.10 0.32 0.14 0.20 0.46 0.26 0.06 0.36 0.40 0.39 0.50 0.42 0.28 0.66 0.43 0.27 0.24 0.50 0.63 0.50 0.48 0.42 0.83
1.32 1.74 1.30 1.08 0.87 0.50 0.55 0.96 0.27 0.56 0.20 0.30 0.60 0.29 0.38 0.44 0.47 0.83 0.58 0.66 0.81 0.32 0.48 0.24 0.25 0.15 0.14 0.14 0.09 0.22 0.14 0.07 0.19 0.12 0.29 0.26 0.17 0.29 0.43 0.02 0.07 0.06 0.03 0.08 0.14 0.17 0.49 0.36 0.35 0.17 0.29 0.13 0.07 0.08 0.11 0.12 0.10 0.10 0.11 0.11 0.07 0.09 0.08 0.08 0.03 0.03 0.14 0.06 0.15 0.38 0.50 0.13 0.35 0.45 0.34 0.53 0.46 0.64 0.37 0.55 0.48 0.41 0.34 0.60 0.43 0.46 0.44 0.41
1.55 1.52 1.47 0.47 0.79 0.89 0.63 0.44 0.34 0.34 0.62 0.37 0.61 0.30 0.44 0.34 0.55 0.63 1.01 0.94 0.79 0.67 0.42 0.56 0.42 0.15 0.15 0.06 0.18 0.22 0.30 0.24 0.16 0.52 0.25 0.25 0.27 0.26 0.50 0.26 0.16 0.10 0.02 0.09 0.22 0.15 0.17 0.44 0.66 0.43 0.51 0.27 0.15 0.14 0.12 0.26 0.15 0.13 0.20 0.19 0.14 0.18 0.11 0.17 0.12 0.06 0.14 0.17 0.14 0.16 0.21 0.29 0.25 0.45 0.30 0.40 0.31 0.17 0.29 0.39 0.25 0.35 0.54 0.46 0.51 0.48 0.43 0.21
1.59 2.36 1.59 0.74 0.53 0.50 0.43 0.37 0.53 0.47 0.41 0.24 0.44 0.36 0.44 0.38 0.48 0.49 0.72 0.84 0.66 0.48 0.48 0.61 0.68 0.28 0.21 0.14 0.14 0.50 0.40 0.63 0.75 0.46 0.31 0.14 0.19 0.15 0.51 0.46 0.67 0.27 0.10 0.11 0.12 0.37 0.04 0.44 0.16 0.35 0.57 0.77 0.54 0.13 0.14 0.34 0.23 0.13 0.07 0.13 0.17 0.37 0.21 0.06 0.17 0.27 0.20 0.21 0.06 0.04 0.02 0.40 0.47 0.27 0.41 0.33 0.24 0.10 0.09 0.16 0.33 0.57 0.34 0.30 0.41 0.30 0.23 0.26
1.51 1.73 1.74 1.10 0.63 0.70 0.62 0.32 0.41 0.61 0.48 0.34 0.39 0.38 0.28 0.42 0.54 0.65 0.72 0.38 0.64 0.55 0.49 0.55 0.64 0.85 0.31 0.22 0.29 0.37 0.32 0.36 0.44 0.75 0.20 0.48 0.31 0.25 0.13 0.35 0.05 0.20 0.19 0.13 0.15 0.50 0.10 0.63 0.43 0.65 0.25 0.51 0.30 0.24 0.24 0.29 0.42 0.25 0.13 0.10 0.11 0.15 0.25 0.08 0.09 0.18 0.37 0.35 0.25 0.13 0.01 0.16 0.54 0.19 0.23 0.25 0.17 0.13 0.13 0.12 0.12 0.12 0.35 0.26 0.22 0.31 0.20 0.17
1.24 0.88 1.15 1.21 0.57 0.27 0.43 0.21 0.39 0.39 0.80 0.59 0.38 0.27 0.44 0.21 0.29 0.38 0.37 0.17 0.29 0.32 0.41 0.53 0.62 0.80 0.53 0.68 0.54 0.25 0.33 0.27 0.35 0.70 0.24 0.18 0.16 0.61 0.38 0.51 0.52 0.65 0.53 0.25 0.38 0.43 0.41 0.19 0.20 0.44 0.36 0.48 0.65 0.26 0.50 0.35 0.48 0.46 0.68 0.19 0.10 0.11 0.26 0.09 0.08 0.05 0.16 0.68 0.58 0.27 0.08 0.06 0.21 0.19 0.17 0.34 0.42 0.19 0.20 0.14 0.10 0.11 0.11 0.11 0.13 0.15 0.12 0.14